Satellite: AO-40 Catalog number: 26609 Epoch time: 01004.43434028 Element set: 15 Inclination: 6.1990 deg RA of node: 233.0284 deg Eccentricity: 0.8146545 Arg of perigee: 202.7074 deg Mean anomaly: 47.7918 deg Mean motion: 1.26905423 rev/day Decay rate: 0.00000e+00 rev/day^2 Epoch rev: 82 Checksum: 249